Weather History for Plattsburgh, NY

Change the Weather History Date:

Tuesday, October 22, 2013

  Actual Average Record
Temperature  
Mean Temperature 46 °F 45 °F  
Max Temperature 56 °F 55 °F 77 °F (1979)
Min Temperature 35 °F 36 °F 21 °F (1959)
Degree Days  
Heating Degree Days 19 20  
Month to date heating degree days 252 354  
Since 1 July heating degree days 533 589  
Cooling Degree Days 0 0  
Month to date cooling degree days 2 0  
Year to date cooling degree days 425 345  
Moisture  
Dew Point 35 °F    
Average Humidity 59    
Maximum Humidity 82    
Minimum Humidity 36    
Precipitation  
Precipitation T in - 0.57 in (1988)
Month to date precipitation 1.63  
Year to date precipitation 28.46  
Sea Level Pressure  
Sea Level Pressure 29.73 in    
Wind  
Wind Speed 8 mph (SSW)    
Max Wind Speed 20 mph    
Max Gust Speed 33 mph    
Visibility 10 miles    
Events Rain    
T = Trace of Precipitation, MM = Missing Value Source: NWS Daily Summary

Daily Weather History Graph

Daily Weather History Graph

Search for Another Location

Airport:

Trip Planner

Search our weather history database for the weather conditions in past years. The results will help you decide how hot, cold, wet, or windy it might be!

Date:

Astronomy

Oct. 22, 2013 Rise Set
Actual Time 7:18 AM EDT 5:57 PM EDT
Civil Twilight 6:48 AM EDT 6:27 PM EDT
Nautical Twilight 6:14 AM EDT 7:01 PM EDT
Astronomical Twilight 5:40 AM EDT 7:34 PM EDT
Moon 8:29 PM EDT (10/22) 10:50 AM EDT (10/22)
Length of Visible Light 11h 38m
Length of Day
10h 38m
Waning Gibbous, 87% of the Moon is Illuminated
Oct 22
Waning Gibbous
Oct 26
Last Quarter
Nov 3
New
Nov 10
First Quarter
Nov 17
Full

Hourly Weather History & Observations

Time (EDT) Temp. Dew Point Humidity Pressure Visibility Wind Dir Wind Speed Gust Speed Precip Events Conditions
12:53 AM 55.9 °F 39.9 °F 55% 29.80 in 10.0 mi SSE 12.7 mph - N/A   Partly Cloudy
1:53 AM 55.9 °F 39.0 °F 53% 29.79 in 10.0 mi SSE 10.4 mph - N/A   Overcast
2:53 AM 55.0 °F 39.0 °F 55% 29.77 in 10.0 mi SSE 11.5 mph - N/A   Scattered Clouds
3:53 AM 55.0 °F 39.9 °F 57% 29.75 in 10.0 mi South 10.4 mph - N/A   Scattered Clouds
4:53 AM 54.0 °F 39.9 °F 59% 29.74 in 10.0 mi South 11.5 mph - N/A   Overcast
5:53 AM 54.0 °F 39.9 °F 59% 29.73 in 10.0 mi South 6.9 mph - N/A   Overcast
6:53 AM 52.0 °F 41.0 °F 66% 29.70 in 10.0 mi South 15.0 mph 19.6 mph N/A   Overcast
7:53 AM 51.1 °F 42.1 °F 71% 29.70 in 10.0 mi South 9.2 mph - N/A   Mostly Cloudy
8:53 AM 51.1 °F 43.0 °F 74% 29.70 in 10.0 mi South 9.2 mph - 0.00 in Rain Light Rain
9:53 AM 53.1 °F 43.0 °F 69% 29.68 in 10.0 mi SSE 10.4 mph - 0.00 in   Partly Cloudy
10:53 AM 54.0 °F 44.1 °F 69% 29.67 in 10.0 mi SSE 11.5 mph - N/A   Overcast
11:53 AM 48.9 °F 37.9 °F 66% 29.70 in 10.0 mi West 8.1 mph 18.4 mph 0.00 in   Overcast
12:53 PM 51.1 °F 36.0 °F 56% 29.69 in 10.0 mi WSW 10.4 mph 21.9 mph N/A   Overcast
1:53 PM 54.0 °F 34.0 °F 47% 29.67 in 10.0 mi West 13.8 mph 33.4 mph N/A   Partly Cloudy
2:53 PM 53.1 °F 33.1 °F 47% 29.70 in 10.0 mi West 12.7 mph 24.2 mph N/A   Clear
3:53 PM 54.0 °F 30.9 °F 41% 29.70 in 10.0 mi Variable 6.9 mph 21.9 mph N/A   Clear
4:53 PM 53.1 °F 28.0 °F 38% 29.72 in 10.0 mi West 12.7 mph 20.7 mph N/A   Clear
5:53 PM 50.0 °F 25.0 °F 38% 29.75 in 10.0 mi WSW 10.4 mph 21.9 mph N/A   Clear
6:53 PM 46.9 °F 27.0 °F 46% 29.78 in 10.0 mi Variable 3.5 mph - N/A   Clear
7:53 PM 44.1 °F 28.0 °F 53% 29.77 in 10.0 mi Calm Calm - N/A   Clear
8:53 PM 39.9 °F 28.9 °F 65% 29.77 in 10.0 mi Calm Calm - N/A   Clear
9:53 PM 36.0 °F 30.0 °F 79% 29.78 in 10.0 mi Calm Calm - N/A   Clear
10:53 PM 37.9 °F 30.9 °F 76% 29.78 in 10.0 mi Calm Calm - N/A   Clear
11:53 PM 41.0 °F 30.0 °F 65% 29.77 in 10.0 mi Calm Calm - N/A   Clear